カタログに戻る

SL-12 DEB

LostHEO
NORAD 41696·DEBRIS·🇷🇺 Russia

打ち上げ Mar 1, 2010 から Baikonur Cosmodrome

Loading…

次のパス (今後24時間)

TLE

古いSource: Space-Track

元期: Jun 23, 2026, 08:36 UTC

1 41696U 10007N   26174.35901916  .00228048  00000-0  12697-1 0  9998
2 41696  63.5013 205.0248 5277081  23.7711 353.6892  5.23607850180122

AllMySatでSL-12 DEBをリアルタイム追跡

Download on the App Store